Year,Month,Day,Hour,Minute,Value (Times are PST for temperature in C)
2012,10,01,00,00,7.60
2012,10,01,00,01,7.60
2012,10,01,00,02,7.60
2012,10,01,00,03,7.60
2012,10,01,00,04,7.60
2012,10,01,00,05,7.60
2012,10,01,00,06,7.60
2012,10,01,00,07,7.60
2012,10,01,00,08,7.60
2012,10,01,00,09,7.60
2012,10,01,00,10,7.60
2012,10,01,00,11,7.60
2012,10,01,00,12,7.60
2012,10,01,00,13,7.60
2012,10,01,00,14,7.60
2012,10,01,00,15,7.60
2012,10,01,00,16,7.60
2012,10,01,00,17,7.60
2012,10,01,00,18,7.60
2012,10,01,00,19,7.60
2012,10,01,00,20,7.60
2012,10,01,00,21,7.60
2012,10,01,00,22,7.60
2012,10,01,00,23,7.60
2012,10,01,00,24,7.60
2012,10,01,00,25,7.60
2012,10,01,00,26,7.60
2012,10,01,00,27,7.60
2012,10,01,00,28,7.60
2012,10,01,00,29,7.60
2012,10,01,00,30,7.50
2012,10,01,00,31,7.50
2012,10,01,00,32,7.50
2012,10,01,00,33,7.50
2012,10,01,00,34,7.50
2012,10,01,00,35,7.50
2012,10,01,00,36,7.40
2012,10,01,00,37,7.40
2012,10,01,00,38,7.40
2012,10,01,00,39,7.40
2012,10,01,00,40,7.40
2012,10,01,00,41,7.30
2012,10,01,00,42,7.30
2012,10,01,00,43,7.30
2012,10,01,00,44,7.20
2012,10,01,00,45,7.20
2012,10,01,00,46,7.20
2012,10,01,00,47,7.20
2012,10,01,00,48,7.20
2012,10,01,00,49,7.20
2012,10,01,00,50,7.20
2012,10,01,00,51,7.20
2012,10,01,00,52,7.20
2012,10,01,00,53,7.20
2012,10,01,00,54,7.20
2012,10,01,00,55,7.20
2012,10,01,00,56,7.20
2012,10,01,00,57,7.10
2012,10,01,00,58,7.10
2012,10,01,00,59,7.10
2012,10,01,01,00,7.10
2012,10,01,01,01,7.10
2012,10,01,01,02,7.10
2012,10,01,01,03,7.10
2012,10,01,01,04,7.10
2012,10,01,01,05,7.10
2012,10,01,01,06,7.00
2012,10,01,01,07,7.00
2012,10,01,01,08,7.00
2012,10,01,01,09,7.00
2012,10,01,01,10,7.00
2012,10,01,01,11,7.00
2012,10,01,01,12,7.00
2012,10,01,01,13,7.00
2012,10,01,01,14,7.10
2012,10,01,01,15,7.10
2012,10,01,01,16,7.10
2012,10,01,01,17,7.10
2012,10,01,01,18,7.10
2012,10,01,01,19,7.10
2012,10,01,01,20,7.10
2012,10,01,01,21,7.00
2012,10,01,01,22,7.00
2012,10,01,01,23,6.90
2012,10,01,01,24,6.90
2012,10,01,01,25,6.90
2012,10,01,01,26,6.90
2012,10,01,01,27,6.90
2012,10,01,01,28,6.90
2012,10,01,01,29,6.90
2012,10,01,01,30,6.90
2012,10,01,01,31,6.90
2012,10,01,01,32,6.90
2012,10,01,01,33,6.90
2012,10,01,01,34,6.90
2012,10,01,01,35,6.90
2012,10,01,01,36,6.90
2012,10,01,01,37,6.90
2012,10,01,01,38,6.90
2012,10,01,01,39,6.80
2012,10,01,01,40,6.80
2012,10,01,01,41,6.80
2012,10,01,01,42,6.80
2012,10,01,01,43,6.80
2012,10,01,01,44,6.70
2012,10,01,01,45,6.70
2012,10,01,01,46,6.70
2012,10,01,01,47,6.70
2012,10,01,01,48,6.70
2012,10,01,01,49,6.60
2012,10,01,01,50,6.60
2012,10,01,01,51,6.60
2012,10,01,01,52,6.60
2012,10,01,01,53,6.60
2012,10,01,01,54,6.60
2012,10,01,01,55,6.60
2012,10,01,01,56,6.60
2012,10,01,01,57,6.60
2012,10,01,01,58,6.60
2012,10,01,01,59,6.70
2012,10,01,02,00,6.70
2012,10,01,02,01,6.70
2012,10,01,02,02,6.70
2012,10,01,02,03,6.60
2012,10,01,02,04,6.60
2012,10,01,02,05,6.60
2012,10,01,02,06,6.60
2012,10,01,02,07,6.60
2012,10,01,02,08,6.60
2012,10,01,02,09,6.60
2012,10,01,02,10,6.60
2012,10,01,02,11,6.50
2012,10,01,02,12,6.50
2012,10,01,02,13,6.50
2012,10,01,02,14,6.50
2012,10,01,02,15,6.50
2012,10,01,02,16,6.50
2012,10,01,02,17,6.50
2012,10,01,02,18,6.50
2012,10,01,02,19,6.40
2012,10,01,02,20,6.40
2012,10,01,02,21,6.40
2012,10,01,02,22,6.40
2012,10,01,02,23,6.40
2012,10,01,02,24,6.40
2012,10,01,02,25,6.40
2012,10,01,02,26,6.40
2012,10,01,02,27,6.30
2012,10,01,02,28,6.30
2012,10,01,02,29,6.30
2012,10,01,02,30,6.30
2012,10,01,02,31,6.30
2012,10,01,02,32,6.30
2012,10,01,02,33,6.30
2012,10,01,02,34,6.30
2012,10,01,02,35,6.30
2012,10,01,02,36,6.30
2012,10,01,02,37,6.30
2012,10,01,02,38,6.30
2012,10,01,02,39,6.30
2012,10,01,02,40,6.40
2012,10,01,02,41,6.40
2012,10,01,02,42,6.40
2012,10,01,02,43,6.50
2012,10,01,02,44,6.50
2012,10,01,02,45,6.50
2012,10,01,02,46,6.50
2012,10,01,02,47,6.50
2012,10,01,02,48,6.50
2012,10,01,02,49,6.50
2012,10,01,02,50,6.50
2012,10,01,02,51,6.50
2012,10,01,02,52,6.50
2012,10,01,02,53,6.50
2012,10,01,02,54,6.50
2012,10,01,02,55,6.50
2012,10,01,02,56,6.50
2012,10,01,02,57,6.50
2012,10,01,02,58,6.50
2012,10,01,02,59,6.50
2012,10,01,03,00,6.50
2012,10,01,03,01,6.50
2012,10,01,03,02,6.40
2012,10,01,03,03,6.40
2012,10,01,03,04,6.40
2012,10,01,03,05,6.40
2012,10,01,03,06,6.40
2012,10,01,03,07,6.40
2012,10,01,03,08,6.40
2012,10,01,03,09,6.40
2012,10,01,03,10,6.40
2012,10,01,03,11,6.40
2012,10,01,03,12,6.40
2012,10,01,03,13,6.40
2012,10,01,03,14,6.40
2012,10,01,03,15,6.50
2012,10,01,03,16,6.50
2012,10,01,03,17,6.60
2012,10,01,03,18,6.60
2012,10,01,03,19,6.60
2012,10,01,03,20,6.60
2012,10,01,03,21,6.50
2012,10,01,03,22,6.50
2012,10,01,03,23,6.50
2012,10,01,03,24,6.50
2012,10,01,03,25,6.50
2012,10,01,03,26,6.50
2012,10,01,03,27,6.50
2012,10,01,03,28,6.50
2012,10,01,03,29,6.50
2012,10,01,03,30,6.60
2012,10,01,03,31,6.60
2012,10,01,03,32,6.60
2012,10,01,03,33,6.60
2012,10,01,03,34,6.60
2012,10,01,03,35,6.60
2012,10,01,03,36,6.60
2012,10,01,03,37,6.60
2012,10,01,03,38,6.60
2012,10,01,03,39,6.60
2012,10,01,03,40,6.60
2012,10,01,03,41,6.50
2012,10,01,03,42,6.40
2012,10,01,03,43,6.30
2012,10,01,03,44,6.30
2012,10,01,03,45,6.30
2012,10,01,03,46,6.30
2012,10,01,03,47,6.20
2012,10,01,03,48,6.20
2012,10,01,03,49,6.20
2012,10,01,03,50,6.20
2012,10,01,03,51,6.20
2012,10,01,03,52,6.10
2012,10,01,03,53,6.10
2012,10,01,03,54,6.10
2012,10,01,03,55,6.10
2012,10,01,03,56,6.10
2012,10,01,03,57,6.00
2012,10,01,03,58,6.00
2012,10,01,03,59,6.00
2012,10,01,04,00,6.00
2012,10,01,04,01,6.00
2012,10,01,04,02,6.00
2012,10,01,04,03,5.90
2012,10,01,04,04,5.90
2012,10,01,04,05,5.90
2012,10,01,04,06,5.90
2012,10,01,04,07,6.00
2012,10,01,04,08,6.00
2012,10,01,04,09,6.00
2012,10,01,04,10,6.00
2012,10,01,04,11,6.00
2012,10,01,04,12,6.00
2012,10,01,04,13,5.90
2012,10,01,04,14,5.90
2012,10,01,04,15,6.00
2012,10,01,04,16,5.90
2012,10,01,04,17,5.90
2012,10,01,04,18,5.90
2012,10,01,04,19,6.00
2012,10,01,04,20,6.00
2012,10,01,04,21,6.00
2012,10,01,04,22,6.00
2012,10,01,04,23,6.00
2012,10,01,04,24,6.00
2012,10,01,04,25,6.10
2012,10,01,04,26,6.10
2012,10,01,04,27,6.10
2012,10,01,04,28,6.10
2012,10,01,04,29,6.10
2012,10,01,04,30,6.10
2012,10,01,04,31,6.10
2012,10,01,04,32,6.10
2012,10,01,04,33,6.10
2012,10,01,04,34,6.10
2012,10,01,04,35,6.10
2012,10,01,04,36,6.10
2012,10,01,04,37,6.10
2012,10,01,04,38,6.00
2012,10,01,04,39,5.90
2012,10,01,04,40,5.90
2012,10,01,04,41,5.90
2012,10,01,04,42,5.90
2012,10,01,04,43,5.90
2012,10,01,04,44,5.90
2012,10,01,04,45,5.90
2012,10,01,04,46,5.80
2012,10,01,04,47,5.80
2012,10,01,04,48,5.80
2012,10,01,04,49,5.80
2012,10,01,04,50,5.80
2012,10,01,04,51,5.90
2012,10,01,04,52,5.90
2012,10,01,04,53,5.90
2012,10,01,04,54,5.90
2012,10,01,04,55,5.90
2012,10,01,04,56,5.90
2012,10,01,04,57,5.80
2012,10,01,04,58,5.80
2012,10,01,04,59,5.80
2012,10,01,05,00,5.90
2012,10,01,05,01,5.90
2012,10,01,05,02,5.90
2012,10,01,05,03,5.90
2012,10,01,05,04,5.90
2012,10,01,05,05,6.00
2012,10,01,05,06,6.00
2012,10,01,05,07,6.10
2012,10,01,05,08,6.10
2012,10,01,05,09,6.10
2012,10,01,05,10,6.10
2012,10,01,05,11,6.20
2012,10,01,05,12,6.20
2012,10,01,05,13,6.20
2012,10,01,05,14,6.20
2012,10,01,05,15,6.10
2012,10,01,05,16,6.00
2012,10,01,05,17,5.90
2012,10,01,05,18,5.70
2012,10,01,05,19,5.60
2012,10,01,05,20,5.50
2012,10,01,05,21,5.50
2012,10,01,05,22,5.40
2012,10,01,05,23,5.40
2012,10,01,05,24,5.30
2012,10,01,05,25,5.30
2012,10,01,05,26,5.30
2012,10,01,05,27,5.30
2012,10,01,05,28,5.30
2012,10,01,05,29,5.30
2012,10,01,05,30,5.30
2012,10,01,05,31,5.30
2012,10,01,05,32,5.30
2012,10,01,05,33,5.30
2012,10,01,05,34,5.30
2012,10,01,05,35,5.40
2012,10,01,05,36,5.40
2012,10,01,05,37,5.40
2012,10,01,05,38,5.30
2012,10,01,05,39,5.30
2012,10,01,05,40,5.30
2012,10,01,05,41,5.40
2012,10,01,05,42,5.40
2012,10,01,05,43,5.40
2012,10,01,05,44,5.40
2012,10,01,05,45,5.40
2012,10,01,05,46,5.40
2012,10,01,05,47,5.40
2012,10,01,05,48,5.40
2012,10,01,05,49,5.50
2012,10,01,05,50,5.50
2012,10,01,05,51,5.50
2012,10,01,05,52,5.60
2012,10,01,05,53,5.60
2012,10,01,05,54,5.70
2012,10,01,05,55,5.70
2012,10,01,05,56,5.70
2012,10,01,05,57,5.80
2012,10,01,05,58,5.80
2012,10,01,05,59,5.80
2012,10,01,06,00,5.80
2012,10,01,06,01,5.80
2012,10,01,06,02,5.80
2012,10,01,06,03,5.70
2012,10,01,06,04,5.70
2012,10,01,06,05,5.70
2012,10,01,06,06,5.60
2012,10,01,06,07,5.60
2012,10,01,06,08,5.60
2012,10,01,06,09,5.50
2012,10,01,06,10,5.50
2012,10,01,06,11,5.50
2012,10,01,06,12,5.40
2012,10,01,06,13,5.40
2012,10,01,06,14,5.30
2012,10,01,06,15,5.30
2012,10,01,06,16,5.20
2012,10,01,06,17,5.20
2012,10,01,06,18,5.20
2012,10,01,06,19,5.20
2012,10,01,06,20,5.20
2012,10,01,06,21,5.30
2012,10,01,06,22,5.30
2012,10,01,06,23,5.40
2012,10,01,06,24,5.50
2012,10,01,06,25,5.50
2012,10,01,06,26,5.60
2012,10,01,06,27,5.60
2012,10,01,06,28,5.60
2012,10,01,06,29,5.60
2012,10,01,06,30,5.60
2012,10,01,06,31,5.70
2012,10,01,06,32,5.70
2012,10,01,06,33,5.70
2012,10,01,06,34,5.70
2012,10,01,06,35,5.80
2012,10,01,06,36,5.80
2012,10,01,06,37,5.80
2012,10,01,06,38,5.80
2012,10,01,06,39,5.80
2012,10,01,06,40,5.80
2012,10,01,06,41,5.70
2012,10,01,06,42,5.70
2012,10,01,06,43,5.70
2012,10,01,06,44,5.70
2012,10,01,06,45,5.70
2012,10,01,06,46,5.60
2012,10,01,06,47,5.60
2012,10,01,06,48,5.60
2012,10,01,06,49,5.70
2012,10,01,06,50,5.70
2012,10,01,06,51,5.70
2012,10,01,06,52,5.70
2012,10,01,06,53,5.70
2012,10,01,06,54,5.70
2012,10,01,06,55,5.70
2012,10,01,06,56,5.70
2012,10,01,06,57,5.70
2012,10,01,06,58,5.70
2012,10,01,06,59,5.70
2012,10,01,07,00,5.70
2012,10,01,07,01,5.70
2012,10,01,07,02,5.70
2012,10,01,07,03,5.70
2012,10,01,07,04,5.70
2012,10,01,07,05,5.70
2012,10,01,07,06,5.70
2012,10,01,07,07,5.70
2012,10,01,07,08,5.60
2012,10,01,07,09,5.60
2012,10,01,07,10,5.60
2012,10,01,07,11,5.60
2012,10,01,07,12,5.60
2012,10,01,07,13,5.60
2012,10,01,07,14,5.60
2012,10,01,07,15,5.60
2012,10,01,07,16,5.60
2012,10,01,07,17,5.50
2012,10,01,07,18,5.50
2012,10,01,07,19,5.50
2012,10,01,07,20,5.50
2012,10,01,07,21,5.50
2012,10,01,07,22,5.50
2012,10,01,07,23,5.50
2012,10,01,07,24,5.50
2012,10,01,07,25,5.40
2012,10,01,07,26,5.50
2012,10,01,07,27,5.40
2012,10,01,07,28,5.40
2012,10,01,07,29,5.40
2012,10,01,07,30,5.40
2012,10,01,07,31,5.40
2012,10,01,07,32,5.40
2012,10,01,07,33,5.40
2012,10,01,07,34,5.40
2012,10,01,07,35,5.40
2012,10,01,07,36,5.50
2012,10,01,07,37,5.50
2012,10,01,07,38,5.50
2012,10,01,07,39,5.50
2012,10,01,07,40,5.50
2012,10,01,07,41,5.40
2012,10,01,07,42,5.40
2012,10,01,07,43,5.40
2012,10,01,07,44,5.40
2012,10,01,07,45,5.40
2012,10,01,07,46,5.40
2012,10,01,07,47,5.40
2012,10,01,07,48,5.50
2012,10,01,07,49,5.50
2012,10,01,07,50,5.50
2012,10,01,07,51,5.60
2012,10,01,07,52,5.60
2012,10,01,07,53,5.70
2012,10,01,07,54,5.80
2012,10,01,07,55,5.90
2012,10,01,07,56,6.00
2012,10,01,07,57,6.10
2012,10,01,07,58,6.10
2012,10,01,07,59,6.20
2012,10,01,08,00,6.20
2012,10,01,08,01,6.30
2012,10,01,08,02,6.30
2012,10,01,08,03,6.30
2012,10,01,08,04,6.30
2012,10,01,08,05,6.30
2012,10,01,08,06,6.40
2012,10,01,08,07,6.40
2012,10,01,08,08,6.50
2012,10,01,08,09,6.60
2012,10,01,08,10,6.70
2012,10,01,08,11,6.70
2012,10,01,08,12,6.70
2012,10,01,08,13,6.70
2012,10,01,08,14,6.80
2012,10,01,08,15,6.80
2012,10,01,08,16,6.90
2012,10,01,08,17,7.00
2012,10,01,08,18,7.10
2012,10,01,08,19,7.20
2012,10,01,08,20,7.30
2012,10,01,08,21,7.40
2012,10,01,08,22,7.40
2012,10,01,08,23,7.40
2012,10,01,08,24,7.50
2012,10,01,08,25,7.50
2012,10,01,08,26,7.60
2012,10,01,08,27,7.60
2012,10,01,08,28,7.60
2012,10,01,08,29,7.70
2012,10,01,08,30,7.70
2012,10,01,08,31,7.80
2012,10,01,08,32,7.90
2012,10,01,08,33,8.10
2012,10,01,08,34,8.20
2012,10,01,08,35,8.40
2012,10,01,08,36,8.60
2012,10,01,08,37,8.70
2012,10,01,08,38,8.90
2012,10,01,08,39,9.00
2012,10,01,08,40,9.20
2012,10,01,08,41,9.30
2012,10,01,08,42,9.50
2012,10,01,08,43,9.60
2012,10,01,08,44,9.70
2012,10,01,08,45,9.90
2012,10,01,08,46,10.00
2012,10,01,08,47,10.10
2012,10,01,08,48,10.20
2012,10,01,08,49,10.20
2012,10,01,08,50,10.30
2012,10,01,08,51,10.40
2012,10,01,08,52,10.50
2012,10,01,08,53,10.50
2012,10,01,08,54,10.50
2012,10,01,08,55,10.50
2012,10,01,08,56,10.40
2012,10,01,08,57,10.40
2012,10,01,08,58,10.30
2012,10,01,08,59,10.30
2012,10,01,09,00,10.30
2012,10,01,09,01,10.30
2012,10,01,09,02,10.30
2012,10,01,09,03,10.40
2012,10,01,09,04,10.40
2012,10,01,09,05,10.40
2012,10,01,09,06,10.40
2012,10,01,09,07,10.50
2012,10,01,09,08,10.60
2012,10,01,09,09,10.60
2012,10,01,09,10,10.80
2012,10,01,09,11,10.90
2012,10,01,09,12,11.00
2012,10,01,09,13,11.10
2012,10,01,09,14,11.30
2012,10,01,09,15,11.40
2012,10,01,09,16,11.50
2012,10,01,09,17,11.60
2012,10,01,09,18,11.80
2012,10,01,09,19,12.00
2012,10,01,09,20,12.10
2012,10,01,09,21,12.30
2012,10,01,09,22,12.50
2012,10,01,09,23,12.70
2012,10,01,09,24,12.90
2012,10,01,09,25,13.00
2012,10,01,09,26,13.20
2012,10,01,09,27,13.40
2012,10,01,09,28,13.60
2012,10,01,09,29,13.70
2012,10,01,09,30,13.80
2012,10,01,09,31,13.90
2012,10,01,09,32,13.90
2012,10,01,09,33,13.90
2012,10,01,09,34,13.80
2012,10,01,09,35,13.80
2012,10,01,09,36,13.80
2012,10,01,09,37,13.80
2012,10,01,09,38,13.80
2012,10,01,09,39,13.80
2012,10,01,09,40,13.90
2012,10,01,09,41,13.90
2012,10,01,09,42,13.90
2012,10,01,09,43,13.90
2012,10,01,09,44,13.90
2012,10,01,09,45,13.80
2012,10,01,09,46,13.80
2012,10,01,09,47,13.80
2012,10,01,09,48,13.90
2012,10,01,09,49,13.90
2012,10,01,09,50,13.90
2012,10,01,09,51,13.90
2012,10,01,09,52,13.90
2012,10,01,09,53,14.00
2012,10,01,09,54,14.00
2012,10,01,09,55,14.00
2012,10,01,09,56,14.00
2012,10,01,09,57,14.00
2012,10,01,09,58,14.00
2012,10,01,09,59,14.00
2012,10,01,10,00,14.00
2012,10,01,10,01,14.10
2012,10,01,10,02,14.10
2012,10,01,10,03,14.10
2012,10,01,10,04,14.20
2012,10,01,10,05,14.20
2012,10,01,10,06,14.20
2012,10,01,10,07,14.30
2012,10,01,10,08,14.30
2012,10,01,10,09,14.30
2012,10,01,10,10,14.40
2012,10,01,10,11,14.40
2012,10,01,10,12,14.50
2012,10,01,10,13,14.50
2012,10,01,10,14,14.60
2012,10,01,10,15,14.80
2012,10,01,10,16,15.00
2012,10,01,10,17,15.00
2012,10,01,10,18,15.00
2012,10,01,10,19,15.00
2012,10,01,10,20,15.00
2012,10,01,10,21,15.00
2012,10,01,10,22,15.10
2012,10,01,10,23,15.20
2012,10,01,10,24,15.30
2012,10,01,10,25,15.30
2012,10,01,10,26,15.30
2012,10,01,10,27,15.30
2012,10,01,10,28,15.40
2012,10,01,10,29,15.40
2012,10,01,10,30,15.50
2012,10,01,10,31,15.50
2012,10,01,10,32,15.60
2012,10,01,10,33,15.70
2012,10,01,10,34,15.70
2012,10,01,10,35,15.80
2012,10,01,10,36,15.90
2012,10,01,10,37,16.00
2012,10,01,10,38,16.10
2012,10,01,10,39,16.10
2012,10,01,10,40,16.20
2012,10,01,10,41,16.20
2012,10,01,10,42,16.20
2012,10,01,10,43,16.30
2012,10,01,10,44,16.30
2012,10,01,10,45,16.50
2012,10,01,10,46,16.60
2012,10,01,10,47,16.60
2012,10,01,10,48,16.70
2012,10,01,10,49,16.70
2012,10,01,10,50,16.80
2012,10,01,10,51,16.80
2012,10,01,10,52,16.90
2012,10,01,10,53,16.90
2012,10,01,10,54,16.90
2012,10,01,10,55,17.00
2012,10,01,10,56,17.00
2012,10,01,10,57,17.10
2012,10,01,10,58,17.10
2012,10,01,10,59,17.10
2012,10,01,11,00,17.20
2012,10,01,11,01,17.20
2012,10,01,11,02,17.20
2012,10,01,11,03,17.20
2012,10,01,11,04,17.20
2012,10,01,11,05,17.30
2012,10,01,11,06,17.30
2012,10,01,11,07,17.30
2012,10,01,11,08,17.30
2012,10,01,11,09,17.30
2012,10,01,11,10,17.30
2012,10,01,11,11,17.40
2012,10,01,11,12,17.50
2012,10,01,11,13,17.60
2012,10,01,11,14,17.70
2012,10,01,11,15,17.70
2012,10,01,11,16,17.70
2012,10,01,11,17,17.80
2012,10,01,11,18,17.80
2012,10,01,11,19,17.80
2012,10,01,11,20,17.90
2012,10,01,11,21,18.00
2012,10,01,11,22,18.20
2012,10,01,11,23,18.40
2012,10,01,11,24,18.50
2012,10,01,11,25,18.60
2012,10,01,11,26,18.70
2012,10,01,11,27,18.90
2012,10,01,11,28,19.00
2012,10,01,11,29,19.10
2012,10,01,11,30,19.10
2012,10,01,11,31,19.20
2012,10,01,11,32,19.30
2012,10,01,11,33,19.30
2012,10,01,11,34,19.30
2012,10,01,11,35,19.40
2012,10,01,11,36,19.50
2012,10,01,11,37,19.60
2012,10,01,11,38,19.70
2012,10,01,11,39,19.70
2012,10,01,11,40,19.80
2012,10,01,11,41,19.80
2012,10,01,11,42,19.90
2012,10,01,11,43,20.00
2012,10,01,11,44,20.00
2012,10,01,11,45,20.00
2012,10,01,11,46,20.00
2012,10,01,11,47,20.10
2012,10,01,11,48,20.10
2012,10,01,11,49,20.20
2012,10,01,11,50,20.20
2012,10,01,11,51,20.30
2012,10,01,11,52,20.30
2012,10,01,11,53,20.40
2012,10,01,11,54,20.40
2012,10,01,11,55,20.50
2012,10,01,11,56,20.60
2012,10,01,11,57,20.60
2012,10,01,11,58,20.70
2012,10,01,11,59,20.70
2012,10,01,12,00,20.80
2012,10,01,12,01,20.80
2012,10,01,12,02,20.80
2012,10,01,12,03,20.90
2012,10,01,12,04,20.90
2012,10,01,12,05,21.00
2012,10,01,12,06,21.10
2012,10,01,12,07,21.10
2012,10,01,12,08,21.20
2012,10,01,12,09,21.20
2012,10,01,12,10,21.30
2012,10,01,12,11,21.30
2012,10,01,12,12,21.30
2012,10,01,12,13,21.40
2012,10,01,12,14,21.50
2012,10,01,12,15,21.40
2012,10,01,12,16,21.40
2012,10,01,12,17,21.40
2012,10,01,12,18,21.40
2012,10,01,12,19,21.40
2012,10,01,12,20,21.40
2012,10,01,12,21,21.40
2012,10,01,12,22,21.30
2012,10,01,12,23,21.30
2012,10,01,12,24,21.30
2012,10,01,12,25,21.30
2012,10,01,12,26,21.30
2012,10,01,12,27,21.40
2012,10,01,12,28,21.40
2012,10,01,12,29,21.40
2012,10,01,12,30,21.40
2012,10,01,12,31,21.40
2012,10,01,12,32,21.40
2012,10,01,12,33,21.50
2012,10,01,12,34,21.60
2012,10,01,12,35,21.50
2012,10,01,12,36,21.40
2012,10,01,12,37,21.30
2012,10,01,12,38,21.40
2012,10,01,12,39,21.40
2012,10,01,12,40,21.40
2012,10,01,12,41,21.40
2012,10,01,12,42,21.40
2012,10,01,12,43,21.40
2012,10,01,12,44,21.50
2012,10,01,12,45,21.70
2012,10,01,12,46,21.80
2012,10,01,12,47,21.90
2012,10,01,12,48,22.00
2012,10,01,12,49,22.10
2012,10,01,12,50,22.20
2012,10,01,12,51,22.30
2012,10,01,12,52,22.30
2012,10,01,12,53,22.30
2012,10,01,12,54,22.40
2012,10,01,12,55,22.40
2012,10,01,12,56,22.40
2012,10,01,12,57,22.50
2012,10,01,12,58,22.60
2012,10,01,12,59,22.60
2012,10,01,13,00,22.70
2012,10,01,13,01,22.60
2012,10,01,13,02,22.60
2012,10,01,13,03,22.60
2012,10,01,13,04,22.60
2012,10,01,13,05,22.60
2012,10,01,13,06,22.60
2012,10,01,13,07,22.60
2012,10,01,13,08,22.70
2012,10,01,13,09,22.70
2012,10,01,13,10,22.70
2012,10,01,13,11,22.70
2012,10,01,13,12,22.70
2012,10,01,13,13,22.70
2012,10,01,13,14,22.70
2012,10,01,13,15,22.70
2012,10,01,13,16,22.80
2012,10,01,13,17,22.90
2012,10,01,13,18,22.90
2012,10,01,13,19,22.90
2012,10,01,13,20,22.90
2012,10,01,13,21,22.90
2012,10,01,13,22,23.00
2012,10,01,13,23,22.90
2012,10,01,13,24,22.90
2012,10,01,13,25,22.80
2012,10,01,13,26,22.80
2012,10,01,13,27,22.90
2012,10,01,13,28,22.80
2012,10,01,13,29,22.80
2012,10,01,13,30,22.90
2012,10,01,13,31,22.90
2012,10,01,13,32,22.90
2012,10,01,13,33,23.00
2012,10,01,13,34,23.00
2012,10,01,13,35,23.10
2012,10,01,13,36,23.20
2012,10,01,13,37,23.20
2012,10,01,13,38,23.20
2012,10,01,13,39,23.30
2012,10,01,13,40,23.30
2012,10,01,13,41,23.30
2012,10,01,13,42,23.30
2012,10,01,13,43,23.30
2012,10,01,13,44,23.30
2012,10,01,13,45,23.30
2012,10,01,13,46,23.30
2012,10,01,13,47,23.40
2012,10,01,13,48,23.50
2012,10,01,13,49,23.50
2012,10,01,13,50,23.60
2012,10,01,13,51,23.80
2012,10,01,13,52,23.80
2012,10,01,13,53,23.80
2012,10,01,13,54,23.90
2012,10,01,13,55,23.90
2012,10,01,13,56,23.90
2012,10,01,13,57,23.80
2012,10,01,13,58,23.90
2012,10,01,13,59,23.90
2012,10,01,14,00,23.90
2012,10,01,14,01,23.90
2012,10,01,14,02,23.80
2012,10,01,14,03,23.80
2012,10,01,14,04,23.80
2012,10,01,14,05,23.90
2012,10,01,14,06,24.00
2012,10,01,14,07,24.00
2012,10,01,14,08,24.00
2012,10,01,14,09,24.10
2012,10,01,14,10,24.20
2012,10,01,14,11,24.20
2012,10,01,14,12,24.30
2012,10,01,14,13,24.30
2012,10,01,14,14,24.30
2012,10,01,14,15,24.40
2012,10,01,14,16,24.30
2012,10,01,14,17,24.30
2012,10,01,14,18,24.30
2012,10,01,14,19,24.40
2012,10,01,14,20,24.40
2012,10,01,14,21,24.40
2012,10,01,14,22,24.30
2012,10,01,14,23,24.10
2012,10,01,14,24,24.00
2012,10,01,14,25,24.00
2012,10,01,14,26,24.00
2012,10,01,14,27,23.90
2012,10,01,14,28,23.90
2012,10,01,14,29,24.00
2012,10,01,14,30,24.00
2012,10,01,14,31,24.00
2012,10,01,14,32,24.00
2012,10,01,14,33,23.90
2012,10,01,14,34,23.80
2012,10,01,14,35,23.70
2012,10,01,14,36,23.60
2012,10,01,14,37,23.60
2012,10,01,14,38,23.50
2012,10,01,14,39,23.40
2012,10,01,14,40,23.40
2012,10,01,14,41,23.40
2012,10,01,14,42,23.50
2012,10,01,14,43,23.50
2012,10,01,14,44,23.40
2012,10,01,14,45,23.40
2012,10,01,14,46,23.40
2012,10,01,14,47,23.40
2012,10,01,14,48,23.40
2012,10,01,14,49,23.40
2012,10,01,14,50,23.40
2012,10,01,14,51,23.40
2012,10,01,14,52,23.40
2012,10,01,14,53,23.40
2012,10,01,14,54,23.30
2012,10,01,14,55,23.30
2012,10,01,14,56,23.30
2012,10,01,14,57,23.30
2012,10,01,14,58,23.30
2012,10,01,14,59,23.30
2012,10,01,15,00,23.30
2012,10,01,15,01,23.30
2012,10,01,15,02,23.30
2012,10,01,15,03,23.30
2012,10,01,15,04,23.20
2012,10,01,15,05,23.10
2012,10,01,15,06,23.10
2012,10,01,15,07,23.10
2012,10,01,15,08,23.20
2012,10,01,15,09,23.20
2012,10,01,15,10,23.20
2012,10,01,15,11,23.30
2012,10,01,15,12,23.30
2012,10,01,15,13,23.30
2012,10,01,15,14,23.30
2012,10,01,15,15,23.40
2012,10,01,15,16,23.40
2012,10,01,15,17,23.40
2012,10,01,15,18,23.40
2012,10,01,15,19,23.40
2012,10,01,15,20,23.40
2012,10,01,15,21,23.40
2012,10,01,15,22,23.40
2012,10,01,15,23,23.40
2012,10,01,15,24,23.40
2012,10,01,15,25,23.40
2012,10,01,15,26,23.30
2012,10,01,15,27,23.20
2012,10,01,15,28,23.20
2012,10,01,15,29,23.20
2012,10,01,15,30,23.10
2012,10,01,15,31,23.10
2012,10,01,15,32,23.20
2012,10,01,15,33,23.20
2012,10,01,15,34,23.20
2012,10,01,15,35,23.20
2012,10,01,15,36,23.20
2012,10,01,15,37,23.30
2012,10,01,15,38,23.20
2012,10,01,15,39,23.20
2012,10,01,15,40,23.10
2012,10,01,15,41,23.10
2012,10,01,15,42,23.10
2012,10,01,15,43,23.10
2012,10,01,15,44,23.10
2012,10,01,15,45,23.10
2012,10,01,15,46,23.10
2012,10,01,15,47,23.10
2012,10,01,15,48,23.20
2012,10,01,15,49,23.20
2012,10,01,15,50,23.30
2012,10,01,15,51,23.20
2012,10,01,15,52,23.10
2012,10,01,15,53,23.10
2012,10,01,15,54,23.10
2012,10,01,15,55,23.20
2012,10,01,15,56,23.30
2012,10,01,15,57,23.30
2012,10,01,15,58,23.30
2012,10,01,15,59,23.30
2012,10,01,16,00,23.30
2012,10,01,16,01,23.30
2012,10,01,16,02,23.20
2012,10,01,16,03,23.20
2012,10,01,16,04,23.20
2012,10,01,16,05,23.30
2012,10,01,16,06,23.30
2012,10,01,16,07,23.30
2012,10,01,16,08,23.20
2012,10,01,16,09,23.10
2012,10,01,16,10,23.10
2012,10,01,16,11,23.10
2012,10,01,16,12,23.00
2012,10,01,16,13,23.00
2012,10,01,16,14,23.00
2012,10,01,16,15,22.90
2012,10,01,16,16,22.80
2012,10,01,16,17,22.60
2012,10,01,16,18,22.50
2012,10,01,16,19,22.40
2012,10,01,16,20,22.50
2012,10,01,16,21,22.50
2012,10,01,16,22,22.60
2012,10,01,16,23,22.60
2012,10,01,16,24,22.60
2012,10,01,16,25,22.60
2012,10,01,16,26,22.70
2012,10,01,16,27,22.60
2012,10,01,16,28,22.60
2012,10,01,16,29,22.70
2012,10,01,16,30,22.70
2012,10,01,16,31,22.60
2012,10,01,16,32,22.50
2012,10,01,16,33,22.50
2012,10,01,16,34,22.40
2012,10,01,16,35,22.30
2012,10,01,16,36,22.30
2012,10,01,16,37,22.30
2012,10,01,16,38,22.30
2012,10,01,16,39,22.30
2012,10,01,16,40,22.30
2012,10,01,16,41,22.20
2012,10,01,16,42,22.00
2012,10,01,16,43,21.90
2012,10,01,16,44,21.90
2012,10,01,16,45,21.90
2012,10,01,16,46,21.90
2012,10,01,16,47,21.80
2012,10,01,16,48,21.80
2012,10,01,16,49,21.80
2012,10,01,16,50,21.60
2012,10,01,16,51,21.50
2012,10,01,16,52,21.50
2012,10,01,16,53,21.40
2012,10,01,16,54,21.40
2012,10,01,16,55,21.30
2012,10,01,16,56,21.30
2012,10,01,16,57,21.30
2012,10,01,16,58,21.30
2012,10,01,16,59,21.30
2012,10,01,17,00,21.20
2012,10,01,17,01,21.20
2012,10,01,17,02,21.20
2012,10,01,17,03,21.20
2012,10,01,17,04,21.10
2012,10,01,17,05,21.10
2012,10,01,17,06,21.10
2012,10,01,17,07,21.00
2012,10,01,17,08,20.90
2012,10,01,17,09,20.80
2012,10,01,17,10,20.70
2012,10,01,17,11,20.60
2012,10,01,17,12,20.50
2012,10,01,17,13,20.40
2012,10,01,17,14,20.30
2012,10,01,17,15,20.20
2012,10,01,17,16,20.10
2012,10,01,17,17,20.00
2012,10,01,17,18,19.90
2012,10,01,17,19,19.90
2012,10,01,17,20,19.90
2012,10,01,17,21,19.90
2012,10,01,17,22,19.90
2012,10,01,17,23,19.90
2012,10,01,17,24,19.80
2012,10,01,17,25,19.80
2012,10,01,17,26,19.80
2012,10,01,17,27,19.80
2012,10,01,17,28,19.80
2012,10,01,17,29,19.70
2012,10,01,17,30,19.60
2012,10,01,17,31,19.60
2012,10,01,17,32,19.60
2012,10,01,17,33,19.60
2012,10,01,17,34,19.60
2012,10,01,17,35,19.60
2012,10,01,17,36,19.60
2012,10,01,17,37,19.60
2012,10,01,17,38,19.60
2012,10,01,17,39,19.60
2012,10,01,17,40,19.60
2012,10,01,17,41,19.60
2012,10,01,17,42,19.60